SCP
0 0 0 0 0 -0 -0 -0 -0 -0 -0 -0 -0 -0 -0 -0 -0 0 0 -0 0 0 0 0 0 0 0 -0 0 0 0 0 -0 -0 -0 -0 0 0 0 0 0 -0 0 0 0
0 0 0 0 0 -0 -0 -0 -0 0 -0 0 -0 0 0 0 0 0 0 0 0 -0 0 -0 -0 -0 -0 -0 0 0 0 0 0 -0 0 0 -0 0 0 0 0 -0 0 0 0
0 0 0 0 -0 -0 -0 -0 -0 -0 0 0 -0 0 0 0 0 0 0 0 0 0 0 0 0 0 -0 -0 0 0 0 0 0 -0 0 0 -0 -0 0 0 0 0 0 0 0
0 0 0 0 -0 -0 -0 -0 -0 0 0 0 0 0 0 0 0 0 0 0 0 0 0 0 0 0 -0 -0 0 0 0 0 0 -0 0 0 0 0 0 -0 0 0 0 0 0
0 0 -0 -0 -0 -0 -0 -0 -0 -0 0 0 0 0 0 0 0 0 0 0 0 0 0 0 0 -0 0 -0 -0 -0 0 -0 0 0 0 0 0 0 0 0 0 0 0 0 0
0 -0 -0 -0 -0 -0 -0 -0 -0 -0 0 0 -0 -0 0 0 0 0 0 0 0 0 0 0 0 0 0 0 0 -0 -0 -0 0 -0 0 -0 0 0 0 0 -0 -0 -0 0 0
0 0 -0 -0 -0 -0 -0 -0 -0 -0 -0 -0 -0 -0 0 0 0 0 0 -0 0 0 0 0 -0 -0 0 0 0 0 -0 0 0 0 0 0 0 0 0 0 0 -0 0 0 0
0 0 -0 -0 -0 -0 -0 -0 -0 -0 -0 -0 -0 -0 0 0 -0 0 0 0 0 0 0 0 0 0 0 0 0 -0 -0 -0 0 0 0 0 0 0 0 0 0 0 0 0 0
0 0 -0 -0 -0 -0 -0 -0 -0 0 0 -0 -0 0 0 0 0 0 0 0 0 0 0 0 0 0 0 -0 -0 -0 -0 0 0 0 0 0 0 0 0 0 0 0 0 0 0
0 0 0 -0 -0 -0 -0 -0 -0 0 -0 -0 -0 0 0 0 0 0 0 0 0 0 0 0 0 0 -0 -0 -0 -0 -0 0 -0 0 0 0 0 0 0 0 0 0 0 0 -0
0 0 0 -0 -0 -0 0 0 0 0 0 0 0 0 0 0 0 0 0 0 0 0 0 0 0 -0 -0 -0 -0 -0 -0 0 0 0 -0 0 0 0 0 0 0 0 -0 -0 0
0 0 0 -0 -0 -0 0 0 0 -0 0 0 0 -0 0 0 0 0 0 0 0 0 0 -0 0 0 0 -0 -0 -0 0 0 0 0 -0 0 0 0 0 0 0 0 0 0 0
0 0 0 -0 -0 0 0 0 0 -0 0 0 0 -0 -0 0 0 0 0 0 0 0 -0 0 0 0 0 -0 -0 0 0 -0 0 0 0 0 0 0 0 0 0 0 0 0 0
0 0 0 -0 0 0 0 0 -0 -0 0 0 0 0 0 0 0 0 0 0 0 0 0 0 0 0 0 -0 0 0 -0 -0 -0 0 0 0 0 0 0 0 0 0 0 0 0
0 0 0 0 0 0 0 0 0 0 0 0 0 0 0 0 0 0 0 0 0 0 0 0 0 0 -0 -0 0 0 -0 -0 0 0 0 0 0 0 0 0 0 0 0 0 0
0 0 0 0 0 0 0 0 0 0 0 0 0 0 0 0 0 0 0 0 0 0 0 0 0 0 0 -0 0 -0 0 0 0 0 0 0 0 0 0 0 0 0 0 0 0
0 0 0 0 0 0 0 0 0 0 0 0 0 0 0 0 0 0 0 0 0 0 0 0 0 -0 -0 -0 0 0 0 0 0 0 0 0 0 0 0 0 0 0 0 0 0
0 0 -0 0 0 0 0 0 0 0 0 0 0 0 0 0 0 0 0 0 0 0 0 0 0 0 0 -0 0 0 0 0 0 0 0 0 0 0 0 0 0 0 0 0 0
0 -0 -0 0 0 0 0 0 0 0 0 0 0 0 0 0 0 0 0 0 0 0 0 0 0 0 0 0 0 0 0 0 0 0 0 0 0 0 0 0 0 0 0 0 0
0 0 0 0 0 0 0 0 0 0 0 0 0 0 0 0 0 0 0 0 0 0 0 0 0 0 0 0 0 0 0 0 0 0 0 0 0 0 0 0 0 0 0 0 0
0 0 0 0 0 0 0 0 0 0 0 0 0 0 0 0 0 0 0 0 0 0 0 0 0 0 0 0 0 0 0 0 0 0 0 0 0 0 0 0 0 0 0 0 0
0 0 0 0 0 0 0 -0 0 0 0 0 0 0 0 0 0 0 0 0 0 0 0 0 0 0 0 0 0 0 0 0 0 0 0 0 0 0 0 0 0 0 0 0 0
0 0 0 0 0 0 0 0 0 0 0 0 0 0 0 0 0 0 0 0 0 0 0 0 0 0 0 0 0 0 0 0 0 0 0 0 0 0 0 0 0 0 0 0 0
0 0 0 0 0 0 0 0 0 0 0 0 0 0 0 0 0 0 0 0 0 0 0 0 0 0 0 0 0 0 0 0 0 0 0 0 0 0 0 0 0 0 0 0 0
0 0 0 0 0 0 0 0 0 0 0 0 0 0 0 0 0 0 0 0 0 0 0 0 0 0 0 0 0 0 0 0 0 0 0 0 0 0 0 0 0 0 0 0 0
0 0 0 0 0 0 0 0 0 0 0 0 0 0 0 0 0 0 0 0 0 0 0 0 0 0 0 0 0 0 0 0 0 0 0 0 0 0 0 0 0 0 0 0 0
0 0 0 0 0 0 0 0 0 0 0 0 0 0 0 0 0 0 0 0 0 0 0 0 0 0 0 0 0 0 0 0 0 0 0 0 0 0 0 0 0 0 0 0 0
Wind_Speed_500mb
31 34 40 45 45 46 50 53 56 55 53 50 48 45 34 28 20 14 7 12 13 16 23 27 28 24 12 7 12 6 9 5 9 14 10 6 8 21 25 30 39 22 28 23 25
31 34 39 44 48 47 51 54 55 56 52 49 49 39 31 27 19 13 11 14 15 15 21 27 31 19 7 2 6 9 8 9 6 12 13 19 10 17 17 37 41 54 59 49 45
31 34 39 44 47 49 53 55 56 54 51 50 44 34 26 22 14 12 17 15 15 14 18 23 19 7 6 9 10 10 11 14 11 24 41 24 18 11 34 14 22 36 53 55 60
31 34 38 42 47 50 53 57 55 49 50 49 37 29 21 14 6 8 4 19 16 17 22 19 9 10 8 5 4 9 36 28 25 39 42 32 39 26 30 25 41 46 50 50 55
32 34 37 41 47 52 53 58 52 46 49 44 29 24 16 7 4 10 3 19 24 23 21 14 6 7 7 6 6 4 18 46 46 39 50 59 40 36 42 45 41 45 51 54 50
33 35 39 42 48 54 56 57 50 47 43 34 23 20 12 5 8 16 2 20 25 26 20 12 3 11 2 3 11 17 57 46 38 35 46 69 40 15 32 46 54 54 55 52 48
34 38 41 44 49 55 58 53 49 45 32 23 21 19 14 8 6 11 1 16 23 17 7 4 10 10 6 5 14 57 24 12 9 12 40 41 15 11 47 42 53 56 48 49 47
33 37 41 44 49 54 53 47 42 30 22 18 21 16 10 2 8 3 2 18 22 12 11 15 15 12 4 2 10 13 12 11 8 17 15 8 9 12 35 46 39 50 52 48 39
33 37 41 42 45 52 47 44 26 18 16 15 16 8 6 6 5 1 13 23 18 11 20 23 14 2 4 11 9 11 10 7 9 7 2 10 20 12 16 39 35 36 44 43 35
33 38 40 40 42 48 46 37 18 13 18 13 9 9 5 2 19 14 9 16 8 13 18 3 3 7 9 9 11 8 11 4 12 7 4 27 23 17 10 21 27 35 39 42 34
33 38 39 37 40 37 47 26 19 7 32 24 29 19 31 13 11 13 17 12 16 11 4 9 8 9 14 15 7 11 0 7 1 11 13 18 28 12 4 27 21 25 36 36 23
33 39 39 34 36 22 26 25 27 23 33 51 57 53 48 39 14 3 17 11 6 5 2 10 12 17 13 10 10 11 11 4 7 18 11 4 17 11 18 15 9 23 40 32 28
32 38 39 32 26 26 10 28 25 28 12 31 18 23 31 19 16 16 25 20 5 2 7 10 11 8 9 11 4 11 16 20 14 14 14 9 10 6 11 14 9 19 35 19 18
31 36 38 34 11 31 12 28 27 13 7 14 7 10 22 15 9 26 18 17 5 14 11 10 14 7 8 14 17 5 25 30 34 11 10 3 7 8 6 5 7 19 26 19 23
32 35 33 31 35 27 29 31 21 1 9 3 6 3 23 26 1 15 29 22 11 9 7 10 6 12 9 13 13 15 36 35 19 14 13 4 9 4 7 3 7 8 18 30 36
31 34 34 29 31 15 32 34 8 10 10 8 9 8 8 7 3 11 25 20 9 9 5 17 22 9 16 11 9 30 16 10 8 8 8 7 7 6 4 11 8 13 11 31 39
31 34 35 32 22 28 30 22 9 5 11 11 7 5 7 7 5 5 9 11 11 4 5 10 9 8 13 7 7 14 13 5 5 9 7 5 10 7 12 10 11 23 33 47 48
35 36 36 34 24 22 25 7 5 7 6 10 7 6 11 11 9 12 12 10 6 6 2 2 12 9 9 11 14 6 13 11 8 7 4 12 5 6 6 23 42 47 51 50 44
37 36 40 26 19 13 4 3 11 8 6 14 13 7 5 8 7 11 13 14 15 19 15 7 9 9 5 8 12 5 8 9 14 6 9 3 0 3 12 25 34 43 50 45 39
34 36 33 21 21 19 7 10 9 7 13 8 7 3 10 4 8 8 13 10 11 22 9 7 1 7 3 12 17 11 12 6 7 10 5 7 7 9 15 22 23 29 42 39 31
27 19 4 11 35 14 6 12 12 21 13 6 6 11 0 5 14 10 6 7 16 9 20 8 6 10 9 9 6 7 5 14 12 7 10 9 8 13 21 27 26 33 42 41 31
12 6 12 38 8 3 6 10 12 15 6 12 8 10 6 8 5 10 11 7 0 14 12 2 10 7 1 12 6 8 8 8 10 5 5 7 7 11 24 37 43 44 40 34 29
7 14 24 13 4 5 11 9 11 8 8 7 6 7 2 7 6 6 4 6 5 7 12 9 5 7 10 11 13 13 7 10 13 7 3 10 8 13 33 33 36 46 41 37 29
6 5 9 18 23 10 5 12 8 13 15 17 9 9 6 5 5 10 6 7 9 10 16 13 7 11 14 12 11 9 6 7 12 7 10 8 13 13 16 24 36 35 45 37 34
8 7 4 4 6 6 6 9 10 11 9 11 6 8 4 8 10 5 5 4 11 6 9 9 7 3 5 12 14 7 12 11 9 12 9 17 22 23 26 31 41 51 44 39 36
6 4 11 9 16 8 10 10 14 11 8 5 3 11 11 8 9 8 10 4 5 11 8 7 3 6 17 14 23 15 12 20 11 15 18 17 10 10 30 38 45 49 47 42 36
14 10 9 9 6 4 7 11 13 0 16 21 9 7 10 10 28 32 8 10 12 11 5 6 9 7 6 14 17 10 8 7 7 6 25 12 13 31 25 37 48 50 47 43 37
Wind_Direction_500mb
325 328 328 329 334 335 333 335 334 333 333 333 332 328 331 330 321 314 245 131 122 146 137 138 136 142 165 219 212 145 60 26 176 147 187 152 100 63 65 56 52 73 101 121 172
324 323 323 323 327 333 332 332 335 333 333 332 331 330 334 329 322 306 149 168 161 142 160 152 148 161 169 199 176 115 96 223 207 149 140 109 114 114 87 64 71 82 91 98 101
318 319 317 317 324 329 329 332 336 332 331 331 330 331 335 331 339 79 180 157 161 151 158 156 158 208 121 190 198 129 153 139 116 159 138 119 97 105 110 64 92 98 102 100 94
311 312 313 317 322 325 327 332 335 331 328 329 328 331 332 329 121 60 34 194 169 162 166 163 175 169 114 186 216 96 134 117 122 147 138 134 132 100 104 127 116 108 112 113 101
307 309 314 319 322 326 328 330 333 326 323 324 325 329 333 317 310 9 332 178 163 169 174 171 185 160 147 227 131 111 107 127 129 144 125 114 101 101 105 128 123 113 112 113 118
307 314 318 322 325 328 329 330 328 322 322 320 324 323 320 302 0 360 273 183 179 166 182 185 46 344 187 17 81 84 120 110 129 135 115 111 133 117 133 131 126 123 119 122 120
311 316 320 326 329 328 329 331 323 326 324 319 319 318 286 257 337 5 229 191 175 173 205 327 348 354 318 29 91 121 99 99 164 152 115 86 29 90 146 144 132 131 130 123 124
311 315 320 326 329 327 328 329 324 326 328 318 314 312 255 184 285 11 156 167 184 206 276 308 347 306 206 55 75 102 82 140 222 221 184 108 106 117 141 145 137 135 135 132 132
308 312 318 325 331 328 329 330 323 317 322 314 306 307 277 235 280 10 159 174 192 256 314 301 307 191 34 91 29 21 170 161 178 1 108 82 144 142 131 156 143 145 144 137 131
305 310 317 327 334 334 338 334 321 309 313 322 291 308 261 15 340 261 189 208 241 320 338 37 84 66 36 69 214 167 100 220 173 214 107 101 91 93 73 148 144 156 158 148 141
305 308 315 329 339 343 350 357 358 333 321 280 275 273 281 298 317 220 202 234 268 313 319 356 52 223 241 213 147 105 170 154 245 30 71 91 97 63 80 123 140 175 179 163 154
303 307 315 330 341 2 6 54 25 326 302 292 285 272 256 273 298 262 200 171 168 222 47 10 259 223 230 223 158 153 117 87 37 19 85 178 103 135 113 103 82 176 184 169 169
301 306 315 329 340 352 57 23 351 326 270 299 267 242 235 222 223 259 205 190 128 248 194 187 246 13 191 265 227 204 166 184 152 108 57 131 29 97 83 97 73 132 174 156 162
298 303 317 329 342 360 62 341 332 313 13 281 262 239 186 194 252 240 206 180 166 219 213 231 271 240 289 244 154 256 178 157 146 128 153 80 180 334 10 146 84 108 124 119 123
294 298 313 322 322 346 328 330 334 225 352 223 208 191 173 168 291 212 212 196 183 223 128 250 276 322 309 239 151 211 152 160 144 93 103 329 77 294 348 121 193 155 120 115 122
289 293 302 307 315 341 329 333 1 41 267 325 148 142 102 200 239 33 179 204 209 234 295 251 262 232 222 266 186 129 105 62 42 92 58 291 136 287 220 219 171 174 150 131 128
285 286 295 291 294 326 327 337 38 141 314 351 289 161 140 184 244 169 187 157 163 157 263 323 261 246 180 189 61 73 63 29 25 47 173 275 69 232 293 217 172 157 131 133 132
287 282 282 272 292 306 323 43 181 264 290 291 321 118 169 157 239 202 143 178 251 101 92 184 335 179 177 166 163 79 134 148 188 156 213 6 54 285 341 76 110 119 130 136 127
296 287 284 267 269 248 334 80 218 229 294 330 333 101 247 206 182 190 170 191 199 171 179 179 269 271 223 125 112 187 68 156 108 56 79 173 152 20 96 99 98 113 129 131 129
309 304 283 276 225 194 86 239 256 260 344 327 335 197 188 222 167 160 180 202 205 195 158 256 324 4 1 59 42 125 154 77 31 130 123 219 200 195 172 136 136 128 128 133 132
312 311 292 225 161 165 186 238 274 280 350 313 328 309 187 281 191 191 199 287 206 156 154 168 106 306 41 21 187 32 64 60 107 100 147 159 250 187 170 161 145 140 140 146 143
299 304 318 161 122 156 199 206 304 310 6 264 216 233 208 276 255 168 200 241 130 149 165 160 110 83 73 308 46 95 92 99 116 206 71 120 263 343 135 144 144 150 151 149 145
268 277 184 176 159 258 278 261 273 284 257 267 276 228 260 250 223 140 153 343 43 112 161 177 51 86 349 355 4 53 28 98 100 98 179 135 236 100 119 125 145 148 151 153 156
272 307 222 238 242 153 302 285 251 258 259 250 265 277 308 302 263 160 131 15 39 76 90 94 105 153 183 186 136 100 77 88 107 108 153 183 152 154 147 142 148 150 158 158 158
233 256 327 259 258 201 209 278 304 322 298 340 15 350 359 317 346 95 104 94 35 58 51 84 94 122 11 109 98 110 122 114 99 151 144 176 168 169 173 169 164 162 158 157 159
229 310 334 285 288 183 185 265 240 242 249 278 44 317 271 222 214 251 150 121 171 30 66 7 75 56 44 86 108 91 89 91 66 106 74 118 94 145 156 156 158 163 164 165 164
223 267 298 297 303 114 217 258 285 63 265 244 312 319 307 307 291 260 213 126 132 115 104 73 118 97 115 129 108 61 204 142 118 87 136 152 198 147 151 164 169 170 173 170 164
Wind_Speed_850mb
31 34 40 45 45 46 50 53 56 55 53 50 48 45 34 28 20 14 7 12 13 16 23 27 28 24 12 7 12 6 9 5 9 14 10 6 8 21 25 30 39 22 28 23 25
31 34 39 44 48 47 51 54 55 56 52 49 49 39 31 27 19 13 11 14 15 15 21 27 31 19 7 2 6 9 8 9 6 12 13 19 10 17 17 37 41 54 59 49 45
31 34 39 44 47 49 53 55 56 54 51 50 44 34 26 22 14 12 17 15 15 14 18 23 19 7 6 9 10 10 11 14 11 24 41 24 18 11 34 14 22 36 53 55 60
31 34 38 42 47 50 53 57 55 49 50 49 37 29 21 14 6 8 4 19 16 17 22 19 9 10 8 5 4 9 36 28 25 39 42 32 39 26 30 25 41 46 50 50 55
32 34 37 41 47 52 53 58 52 46 49 44 29 24 16 7 4 10 3 19 24 23 21 14 6 7 7 6 6 4 18 46 46 39 50 59 40 36 42 45 41 45 51 54 50
33 35 39 42 48 54 56 57 50 47 43 34 23 20 12 5 8 16 2 20 25 26 20 12 3 11 2 3 11 17 57 46 38 35 46 69 40 15 32 46 54 54 55 52 48
34 38 41 44 49 55 58 53 49 45 32 23 21 19 14 8 6 11 1 16 23 17 7 4 10 10 6 5 14 57 24 12 9 12 40 41 15 11 47 42 53 56 48 49 47
33 37 41 44 49 54 53 47 42 30 22 18 21 16 10 2 8 3 2 18 22 12 11 15 15 12 4 2 10 13 12 11 8 17 15 8 9 12 35 46 39 50 52 48 39
33 37 41 42 45 52 47 44 26 18 16 15 16 8 6 6 5 1 13 23 18 11 20 23 14 2 4 11 9 11 10 7 9 7 2 10 20 12 16 39 35 36 44 43 35
33 38 40 40 42 48 46 37 18 13 18 13 9 9 5 2 19 14 9 16 8 13 18 3 3 7 9 9 11 8 11 4 12 7 4 27 23 17 10 21 27 35 39 42 34
33 38 39 37 40 37 47 26 19 7 32 24 29 19 31 13 11 13 17 12 16 11 4 9 8 9 14 15 7 11 0 7 1 11 13 18 28 12 4 27 21 25 36 36 23
33 39 39 34 36 22 26 25 27 23 33 51 57 53 48 39 14 3 17 11 6 5 2 10 12 17 13 10 10 11 11 4 7 18 11 4 17 11 18 15 9 23 40 32 28
32 38 39 32 26 26 10 28 25 28 12 31 18 23 31 19 16 16 25 20 5 2 7 10 11 8 9 11 4 11 16 20 14 14 14 9 10 6 11 14 9 19 35 19 18
31 36 38 34 11 31 12 28 27 13 7 14 7 10 22 15 9 26 18 17 5 14 11 10 14 7 8 14 17 5 25 30 34 11 10 3 7 8 6 5 7 19 26 19 23
32 35 33 31 35 27 29 31 21 1 9 3 6 3 23 26 1 15 29 22 11 9 7 10 6 12 9 13 13 15 36 35 19 14 13 4 9 4 7 3 7 8 18 30 36
31 34 34 29 31 15 32 34 8 10 10 8 9 8 8 7 3 11 25 20 9 9 5 17 22 9 16 11 9 30 16 10 8 8 8 7 7 6 4 11 8 13 11 31 39
31 34 35 32 22 28 30 22 9 5 11 11 7 5 7 7 5 5 9 11 11 4 5 10 9 8 13 7 7 14 13 5 5 9 7 5 10 7 12 10 11 23 33 47 48
35 36 36 34 24 22 25 7 5 7 6 10 7 6 11 11 9 12 12 10 6 6 2 2 12 9 9 11 14 6 13 11 8 7 4 12 5 6 6 23 42 47 51 50 44
37 36 40 26 19 13 4 3 11 8 6 14 13 7 5 8 7 11 13 14 15 19 15 7 9 9 5 8 12 5 8 9 14 6 9 3 0 3 12 25 34 43 50 45 39
34 36 33 21 21 19 7 10 9 7 13 8 7 3 10 4 8 8 13 10 11 22 9 7 1 7 3 12 17 11 12 6 7 10 5 7 7 9 15 22 23 29 42 39 31
27 19 4 11 35 14 6 12 12 21 13 6 6 11 0 5 14 10 6 7 16 9 20 8 6 10 9 9 6 7 5 14 12 7 10 9 8 13 21 27 26 33 42 41 31
12 6 12 38 8 3 6 10 12 15 6 12 8 10 6 8 5 10 11 7 0 14 12 2 10 7 1 12 6 8 8 8 10 5 5 7 7 11 24 37 43 44 40 34 29
7 14 24 13 4 5 11 9 11 8 8 7 6 7 2 7 6 6 4 6 5 7 12 9 5 7 10 11 13 13 7 10 13 7 3 10 8 13 33 33 36 46 41 37 29
6 5 9 18 23 10 5 12 8 13 15 17 9 9 6 5 5 10 6 7 9 10 16 13 7 11 14 12 11 9 6 7 12 7 10 8 13 13 16 24 36 35 45 37 34
8 7 4 4 6 6 6 9 10 11 9 11 6 8 4 8 10 5 5 4 11 6 9 9 7 3 5 12 14 7 12 11 9 12 9 17 22 23 26 31 41 51 44 39 36
6 4 11 9 16 8 10 10 14 11 8 5 3 11 11 8 9 8 10 4 5 11 8 7 3 6 17 14 23 15 12 20 11 15 18 17 10 10 30 38 45 49 47 42 36
14 10 9 9 6 4 7 11 13 0 16 21 9 7 10 10 28 32 8 10 12 11 5 6 9 7 6 14 17 10 8 7 7 6 25 12 13 31 25 37 48 50 47 43 37
Wind_Direction_850mb
325 328 328 329 334 335 333 335 334 333 333 333 332 328 331 330 321 314 245 131 122 146 137 138 136 142 165 219 212 145 60 26 176 147 187 152 100 63 65 56 52 73 101 121 172
324 323 323 323 327 333 332 332 335 333 333 332 331 330 334 329 322 306 149 168 161 142 160 152 148 161 169 199 176 115 96 223 207 149 140 109 114 114 87 64 71 82 91 98 101
318 319 317 317 324 329 329 332 336 332 331 331 330 331 335 331 339 79 180 157 161 151 158 156 158 208 121 190 198 129 153 139 116 159 138 119 97 105 110 64 92 98 102 100 94
311 312 313 317 322 325 327 332 335 331 328 329 328 331 332 329 121 60 34 194 169 162 166 163 175 169 114 186 216 96 134 117 122 147 138 134 132 100 104 127 116 108 112 113 101
307 309 314 319 322 326 328 330 333 326 323 324 325 329 333 317 310 9 332 178 163 169 174 171 185 160 147 227 131 111 107 127 129 144 125 114 101 101 105 128 123 113 112 113 118
307 314 318 322 325 328 329 330 328 322 322 320 324 323 320 302 0 360 273 183 179 166 182 185 46 344 187 17 81 84 120 110 129 135 115 111 133 117 133 131 126 123 119 122 120
311 316 320 326 329 328 329 331 323 326 324 319 319 318 286 257 337 5 229 191 175 173 205 327 348 354 318 29 91 121 99 99 164 152 115 86 29 90 146 144 132 131 130 123 124
311 315 320 326 329 327 328 329 324 326 328 318 314 312 255 184 285 11 156 167 184 206 276 308 347 306 206 55 75 102 82 140 222 221 184 108 106 117 141 145 137 135 135 132 132
308 312 318 325 331 328 329 330 323 317 322 314 306 307 277 235 280 10 159 174 192 256 314 301 307 191 34 91 29 21 170 161 178 1 108 82 144 142 131 156 143 145 144 137 131
305 310 317 327 334 334 338 334 321 309 313 322 291 308 261 15 340 261 189 208 241 320 338 37 84 66 36 69 214 167 100 220 173 214 107 101 91 93 73 148 144 156 158 148 141
305 308 315 329 339 343 350 357 358 333 321 280 275 273 281 298 317 220 202 234 268 313 319 356 52 223 241 213 147 105 170 154 245 30 71 91 97 63 80 123 140 175 179 163 154
303 307 315 330 341 2 6 54 25 326 302 292 285 272 256 273 298 262 200 171 168 222 47 10 259 223 230 223 158 153 117 87 37 19 85 178 103 135 113 103 82 176 184 169 169
301 306 315 329 340 352 57 23 351 326 270 299 267 242 235 222 223 259 205 190 128 248 194 187 246 13 191 265 227 204 166 184 152 108 57 131 29 97 83 97 73 132 174 156 162
298 303 317 329 342 360 62 341 332 313 13 281 262 239 186 194 252 240 206 180 166 219 213 231 271 240 289 244 154 256 178 157 146 128 153 80 180 334 10 146 84 108 124 119 123
294 298 313 322 322 346 328 330 334 225 352 223 208 191 173 168 291 212 212 196 183 223 128 250 276 322 309 239 151 211 152 160 144 93 103 329 77 294 348 121 193 155 120 115 122
289 293 302 307 315 341 329 333 1 41 267 325 148 142 102 200 239 33 179 204 209 234 295 251 262 232 222 266 186 129 105 62 42 92 58 291 136 287 220 219 171 174 150 131 128
285 286 295 291 294 326 327 337 38 141 314 351 289 161 140 184 244 169 187 157 163 157 263 323 261 246 180 189 61 73 63 29 25 47 173 275 69 232 293 217 172 157 131 133 132
287 282 282 272 292 306 323 43 181 264 290 291 321 118 169 157 239 202 143 178 251 101 92 184 335 179 177 166 163 79 134 148 188 156 213 6 54 285 341 76 110 119 130 136 127
296 287 284 267 269 248 334 80 218 229 294 330 333 101 247 206 182 190 170 191 199 171 179 179 269 271 223 125 112 187 68 156 108 56 79 173 152 20 96 99 98 113 129 131 129
309 304 283 276 225 194 86 239 256 260 344 327 335 197 188 222 167 160 180 202 205 195 158 256 324 4 1 59 42 125 154 77 31 130 123 219 200 195 172 136 136 128 128 133 132
312 311 292 225 161 165 186 238 274 280 350 313 328 309 187 281 191 191 199 287 206 156 154 168 106 306 41 21 187 32 64 60 107 100 147 159 250 187 170 161 145 140 140 146 143
299 304 318 161 122 156 199 206 304 310 6 264 216 233 208 276 255 168 200 241 130 149 165 160 110 83 73 308 46 95 92 99 116 206 71 120 263 343 135 144 144 150 151 149 145
268 277 184 176 159 258 278 261 273 284 257 267 276 228 260 250 223 140 153 343 43 112 161 177 51 86 349 355 4 53 28 98 100 98 179 135 236 100 119 125 145 148 151 153 156
272 307 222 238 242 153 302 285 251 258 259 250 265 277 308 302 263 160 131 15 39 76 90 94 105 153 183 186 136 100 77 88 107 108 153 183 152 154 147 142 148 150 158 158 158
233 256 327 259 258 201 209 278 304 322 298 340 15 350 359 317 346 95 104 94 35 58 51 84 94 122 11 109 98 110 122 114 99 151 144 176 168 169 173 169 164 162 158 157 159
229 310 334 285 288 183 185 265 240 242 249 278 44 317 271 222 214 251 150 121 171 30 66 7 75 56 44 86 108 91 89 91 66 106 74 118 94 145 156 156 158 163 164 165 164
223 267 298 297 303 114 217 258 285 63 265 244 312 319 307 307 291 260 213 126 132 115 104 73 118 97 115 129 108 61 204 142 118 87 136 152 198 147 151 164 169 170 173 170 164